Back to catalog

SHIYAN 30-03

AliveMilitaryVLEO
NORAD 68139·PAYLOAD·🇨🇳 China

Launched Mar 12, 2026 from Xichang Satellite Launch Center

Loading…

Next Passes (next 24 hours)

TLE

FreshSource: Space-Track

Epoch: Sep 14, 2026, 18:27 UTC

1 68139U 26048A   26257.76883440  .00001378  00000-0  13614-3 0  9996
2 68139  34.9995  91.0501 0004044  21.9767 338.1111 14.91969543 27758

Track SHIYAN 30-03 in real time with AllMySat

Download on the App Store